Waarnemingen

Advertentie
Mijn weer
Hoorn-A, Nederland (6212): temperatuur & dauwpunt: 14.06.2018 09:00:00 - 20.06.2018 09:00:00 (CEST)Hoorn-A, Nederland (6212): windsnelheid & windstoten: 14.06.2018 09:00:00 - 20.06.2018 09:00:00 (CEST)Hoorn-A, Nederland (6212): windrichting: 14.06.2018 09:00:00 - 20.06.2018 09:00:00 (CEST)Hoorn-A, Nederland (6212): luchtdruk: 14.06.2018 09:00:00 - 20.06.2018 09:00:00 (CEST)Hoorn-A, Nederland (6212): zicht: 14.06.2018 09:00:00 - 20.06.2018 09:00:00 (CEST)
Datum & Tijd tt [°C] td [°C] ff [km/u] ff [kn] fx [km/u] fx [kn] dd ppp [hPa] vv [km]
20.06.2018 09:00:00 13,8 13,8 36 19 43 23 Z 1020,0 0,2
20.06.2018 08:00:00 14,1 14,0 41 22 40 21 Z 1019,9 0,1
20.06.2018 07:00:00 13,9 13,9 41 22 36 19 Z 1020,0 0,2
20.06.2018 06:00:00 14,1 14,1 37 20 36 19 Z 1020,2 0,2
20.06.2018 05:00:00 14,2 14,2 39 21 40 21 Z 1020,2 0,4
20.06.2018 04:00:00 14,8 14,3 36 19 43 23 Z 1020,5 1,9
20.06.2018 03:00:00 15,6 14,4 42 23 43 23 Z 1020,7 10
20.06.2018 02:00:00 15,6 14,2 46 25 43 23 Z 1021,1 10
20.06.2018 01:00:00 15,8 14,3 44 24 43 23 Z 1021,4 10
20.06.2018 00:00:00 15,8 14,4 46 25 43 23 Z 1021,7 10
19.06.2018 23:00:00 15,8 14,5 46 25 43 23 Z 1022,0 10
19.06.2018 22:00:00 15,7 14,3 41 22 36 19 Z 1022,2 10
19.06.2018 21:00:00 15,7 14,6 29 16 32 18 Z 1022,2 15
19.06.2018 20:00:00 15,5 14,3 26 14 25 14 ZZO 1022,6 10
19.06.2018 19:00:00 15,3 14,2 24 13 25 14 Z 1022,9 10
19.06.2018 18:00:00 15,2 13,9 14 8 18 10 ZZW 1023,2 17
19.06.2018 17:00:00 15,1 13,7 16 9 14 8 Z 1023,4 10
19.06.2018 16:00:00 15,0 13,5 16 9 14 8 Z 1023,5 10
19.06.2018 15:00:00 14,8 13,4 11 6 11 6 ZW 1023,6 10
19.06.2018 14:00:00 14,9 13,5 11 6 14 8 W 1023,4 10
19.06.2018 13:00:00 14,9 13,4 13 7 18 10 ZW 1023,3 10
19.06.2018 12:00:00 15,0 13,6 16 9 18 10 W 1022,7 10
19.06.2018 11:00:00 15,0 13,7 22 12 25 14 WNW 1022,3 10
19.06.2018 10:00:00 15,2 13,8 29 16 32 18 WNW 1021,9 10
19.06.2018 09:00:00 15,2 14,0 34 18 40 21 WNW 1021,1 10
19.06.2018 08:00:00 15,5 14,0 35 19 40 21 ZZW 1020,4 10
19.06.2018 07:00:00 15,3 13,9 35 19 36 19 ZZW 1019,7 10
19.06.2018 06:00:00 15,7 14,0 42 23 40 21 ZZW 1019,1 10
19.06.2018 05:00:00 15,6 13,9 32 18 36 19 ZZW 1018,7 14
19.06.2018 04:00:00 15,8 13,8 29 16 36 19 ZZW 1018,3 18
19.06.2018 03:00:00 16,0 13,7 32 18 36 19 ZW 1017,7 17
19.06.2018 02:00:00 15,8 13,6 32 18 40 21 ZZW 1017,7 12
19.06.2018 01:00:00 15,4 13,6 35 19 36 19 WZW 1017,6 9
19.06.2018 00:00:00 15,3 13,4 37 20 40 21 Z 1018,0 9
18.06.2018 23:00:00 15,0 13,2 44 24 50 27 Z 1018,0 9
18.06.2018 22:00:00 15,0 12,9 50 27 50 27 Z 1017,6 10
18.06.2018 21:00:00 15,0 12,9 50 27 47 25 Z 1017,6 10
18.06.2018 20:00:00 15,1 13,0 48 26 43 23 Z 1017,7 10
18.06.2018 19:00:00 15,1 13,3 41 22 40 21 Z 1017,8 10
18.06.2018 18:00:00 15,1 13,5 35 19 36 19 Z 1018,1 10
18.06.2018 17:00:00 14,9 13,5 35 19 32 18 Z 1018,0 10
18.06.2018 16:00:00 14,9 13,1 29 16 36 19 ZZW 1018,2 17
18.06.2018 15:00:00 14,9 13,5 34 18 36 19 Z 1018,0 10
18.06.2018 14:00:00 14,8 13,9 39 21 36 19 Z 1017,7 10
18.06.2018 13:00:00 15,0 13,8 34 18 32 18 ZZW 1018,0 10
18.06.2018 12:00:00 14,8 13,9 35 19 36 19 Z 1017,6 10
18.06.2018 11:00:00 14,9 14,0 37 20 36 19 Z 1017,1 10
18.06.2018 10:00:00 14,8 14,0 39 21 36 19 Z 1016,7 9
18.06.2018 09:00:00 14,6 14,0 39 21 36 19 Z 1016,6 6
18.06.2018 08:00:00 14,6 13,8 41 22 40 21 Z 1016,2 7
18.06.2018 07:00:00 14,4 13,6 39 21 40 21 Z 1015,9 9
18.06.2018 06:00:00 14,3 13,3 37 20 40 21 Z 1016,1 10
18.06.2018 05:00:00 14,3 13,2 37 20 40 21 Z 1015,9 9
18.06.2018 04:00:00 14,3 13,0 39 21 40 21 Z 1015,9 10
18.06.2018 03:00:00 14,4 12,8 39 21 40 21 Z 1016,0 10
18.06.2018 02:00:00 14,6 12,8 39 21 40 21 Z 1016,4 10
18.06.2018 01:00:00 14,6 12,7 39 21 40 21 Z 1016,6 10
18.06.2018 00:00:00 14,6 12,4 39 21 40 21 Z 1016,9 10
17.06.2018 23:00:00 14,7 12,6 35 19 36 19 Z 1016,8 10
17.06.2018 22:00:00 14,5 12,6 37 20 36 19 Z 1017,0 10
17.06.2018 21:00:00 14,5 12,2 31 17 36 19 Z 1016,8 10
17.06.2018 20:00:00 14,5 12,5 34 18 36 19 Z 1017,0 10
17.06.2018 19:00:00 14,4 12,1 34 18 36 19 Z 1016,8 10
17.06.2018 18:00:00 14,5 12,2 35 19 40 21 Z 1016,7 10
17.06.2018 17:00:00 14,4 12,1 34 18 36 19 Z 1016,9 10
17.06.2018 16:00:00 14,3 11,6 29 16 29 16 Z 1016,6 10
17.06.2018 15:00:00 14,3 11,3 28 15 29 16 ZZW 1016,4 10
17.06.2018 14:00:00 13,9 11,0 31 17 32 18 ZZW 1016,0 10
17.06.2018 13:00:00 13,7 11,0 29 16 29 16 ZZW 1015,8 10
17.06.2018 12:00:00 13,5 11,0 29 16 32 18 ZZW 1015,3 10
17.06.2018 11:00:00 13,7 11,2 29 16 32 18 ZZW 1015,2 10
17.06.2018 10:00:00 13,7 11,0 34 18 32 18 ZW 1014,6 10
17.06.2018 09:00:00 13,9 10,8 31 17 29 16 ZW 1014,0 10
17.06.2018 08:00:00 14,1 11,1 29 16 29 16 ZW 1013,3 10
17.06.2018 07:00:00 14,0 12,0 26 14 29 16 ZZW 1012,9 10
17.06.2018 06:00:00 14,1 12,2 35 19 32 18 ZZW 1012,6 10
17.06.2018 05:00:00 14,3 12,3 34 18 43 23 ZZW 1012,3 10
17.06.2018 04:00:00 14,6 12,5 44 24 54 29 ZZW 1012,2 10
17.06.2018 03:00:00 14,3 12,6 46 25 47 25 Z 1012,1 10
17.06.2018 02:00:00 14,5 12,5 44 24 47 25 Z 1012,2 10
17.06.2018 01:00:00 14,6 12,8 42 23 43 23 Z 1012,4 10
17.06.2018 00:00:00 14,7 12,6 42 23 43 23 Z 1012,6 10
16.06.2018 23:00:00 14,6 12,4 41 22 43 23 Z 1012,8 10
16.06.2018 22:00:00 14,5 12,2 39 21 40 21 Z 1012,9 10
16.06.2018 21:00:00 14,5 12,1 35 19 36 19 Z 1013,0 10
16.06.2018 20:00:00 14,4 11,7 37 20 36 19 Z 1013,0 10
16.06.2018 19:00:00 14,6 12,9 31 17 32 18 Z 1013,4 10
16.06.2018 18:00:00 14,9 11,4 26 14 29 16 Z 1013,8 10
16.06.2018 17:00:00 14,9 12,1 18 10 22 12 Z 1014,0 10
16.06.2018 16:00:00 14,7 12,2 18 10 18 10 Z 1014,1 10
16.06.2018 15:00:00 14,5 12,8 13 7 14 8 ZZW 1013,9 10
16.06.2018 14:00:00 14,4 13,2 11 6 22 12 Z 1013,7 10
16.06.2018 13:00:00 14,6 13,4 26 14 29 16 Z 1013,9 10
16.06.2018 12:00:00 14,5 13,5 21 11 25 14 Z 1013,9 10
16.06.2018 11:00:00 14,3 13,2 26 14 25 14 ZZO 1014,0 10
16.06.2018 10:00:00 14,3 12,9 21 11 29 16 Z 1014,1 10
16.06.2018 09:00:00 14,5 12,8 16 9 25 14 ZZW 1013,8 10
16.06.2018 08:00:00 14,6 12,7 21 11 22 12 ZZO 1014,3 10
16.06.2018 07:00:00 14,4 12,1 11 6 18 10 ZZO 1014,1 18
16.06.2018 06:00:00 14,3 12,6 14 8 14 8 Z 1014,3 17
16.06.2018 05:00:00 14,7 12,0 7 4 14 8 Z 1014,4 29
16.06.2018 04:00:00 13,6 12,7 14 8 14 8 Z 1014,9 24
16.06.2018 03:00:00 15,1 14,1 7 4 14 8 ZZO 1015,1 7
16.06.2018 02:00:00 15,6 13,7 14 8 18 10 O 1015,4 12
16.06.2018 01:00:00 15,9 13,6 14 8 22 12 O 1015,5 17
16.06.2018 00:00:00 15,7 12,9 22 12 25 14 ONO 1015,7 10
15.06.2018 23:00:00 15,6 11,4 26 14 25 14 NO 1015,8 10
15.06.2018 22:00:00 14,8 13,2 24 13 22 12 NO 1015,8 10
15.06.2018 21:00:00 14,7 12,3 15 8 18 10 NNO 1016,1 10
15.06.2018 20:00:00 13,9 13,4 11 6 11 6 NNO 1016,5 10
15.06.2018 19:00:00 13,5 12,9 5 3 7 4 N 1016,7 6
15.06.2018 18:00:00 12,9 12,9 4 2 11 6 - 1017,0 0,2
15.06.2018 17:00:00 13,1 13,0 11 6 14 8 W 1017,0 0,8
15.06.2018 16:00:00 13,9 13,5 11 6 14 8 WZW 1017,0 10
15.06.2018 15:00:00 14,5 13,9 13 7 14 8 ZW 1017,1 10
15.06.2018 14:00:00 13,9 13,5 11 6 14 8 Z 1017,0 10
15.06.2018 13:00:00 14,6 13,4 16 9 18 10 Z 1017,1 10
15.06.2018 12:00:00 15,0 13,7 8 4 11 6 Z 1017,0 10
15.06.2018 11:00:00 15,1 13,1 8 4 11 6 Z 1016,9 10
15.06.2018 10:00:00 15,1 13,0 4 2 7 4 Z 1016,8 10
15.06.2018 09:00:00 15,2 12,7 4 2 4 2 Z 1016,5 10
15.06.2018 08:00:00 15,4 12,2 4 2 7 4 Z 1016,2 10
15.06.2018 07:00:00 15,3 12,0 4 2 7 4 ZZW 1015,7 10
15.06.2018 06:00:00 14,7 12,3 5 3 11 6 Z 1015,8 10
15.06.2018 05:00:00 14,9 11,8 9 5 14 8 ZZW 1015,5 10
15.06.2018 04:00:00 15,8 10,0 9 5 14 8 Z 1015,4 10
15.06.2018 03:00:00 15,8 9,2 5 3 4 2 Z 1015,5 10
15.06.2018 02:00:00 15,2 10,5 2 1 4 2 ZZW 1015,3 10
15.06.2018 01:00:00 14,9 12,5 5 3 7 4 ZZW 1015,5 10
15.06.2018 00:00:00 14,7 12,5 11 6 14 8 W 1015,3 10
14.06.2018 23:00:00 14,3 13,3 16 9 25 14 ZW 1014,9 10
14.06.2018 22:00:00 14,3 13,3 28 15 29 16 ZZW 1014,3 8
14.06.2018 21:00:00 14,2 13,3 34 18 40 21 ZZW 1013,4 8
14.06.2018 20:00:00 14,4 13,3 37 20 40 21 ZZW 1012,7 8
14.06.2018 19:00:00 14,4 13,2 44 24 47 25 Z 1012,0 9
14.06.2018 18:00:00 14,5 13,1 52 28 54 29 Z 1011,5 10
14.06.2018 17:00:00 14,5 12,8 55 30 58 31 Z 1010,6 10
14.06.2018 16:00:00 14,3 12,8 59 32 61 33 Z 1010,3 9
14.06.2018 15:00:00 13,9 12,9 59 32 68 37 Z 1010,1 4,0
14.06.2018 14:00:00 15,2 11,9 61 33 68 37 Z 1009,9 10
14.06.2018 13:00:00 15,2 12,3 63 34 65 35 ZZO 1009,6 10
14.06.2018 12:00:00 15,2 12,1 59 32 61 33 ZZO 1009,4 10
14.06.2018 11:00:00 15,1 11,4 54 29 58 31 ZZO 1010,1 10
14.06.2018 10:00:00 15,1 11,2 54 29 54 29 ZZW 1010,3 10
14.06.2018 09:00:00 15,2 11,0 52 28 58 31 ZZW 1010,4 10

tt = temperatuur
td = dauwpunt
ff = windsnelheid
fx = windstoten
dd = windrichting
ppp = luchtdruk
vv = zicht

Weerstations in de omgeving